Flag for U.S.A. Weather past 2 weeks in Minot, North Dakota, U.S.A.

Now
80 °F

Sunny.


Feels Like: 82 °F
Forecast: 62 / 81 °F
Wind: 18 mph from South

Location: Minot International Airport

Current Time: Jul 24, 2014 at 3:10:37 PM

Latest Report: Jul 24, 2014 at 1:54 PM


Visibility: 10 mi

Pressure: 29.76 "Hg

Humidity: 58%

Dew point: 64 °F

Location of MinotLocation

Historic Weather in Minot — Graph

°F

Minot temperature yesterday

Maximum temperature yesterday: 77 °F (at 4:54 PM)
Minimum temperature yesterday: 63 °F (at 7:02 AM)
Average temperature yesterday: 69 °F

Past Weeks' High & Low Weather Summary

 TemperatureHumidityPressure
High90 °F (Jul 20, 1:54 PM)100% (Jul 16, 9:54 AM)30.32 "Hg (Jul 16, 9:54 AM)
Low49 °F (Jul 15, 5:54 AM)28% (Jul 20, 1:54 PM)29.55 "Hg (Jul 20, 3:54 AM)
Average68 °F66%29.95 "Hg
* Reported Jul 9 1:54 PM — Jul 24 1:54 PM, Minot, Weather by CustomWeather, © 2014

Note: Actual official high and low records may vary slightly from our data, if they occured in-between our weather recording intervals... More about our weather records

Advertising

Minot weather history for previous 24 hours

 ConditionsComfort  
Time TempWeatherWind HumidityBarometerVisibility
1:54 PM
Jul 24
80 °FSunny.18 mph58%29.76 "Hg10 mi
12:54 PM79 °FSunny.22 mph56%29.79 "Hg10 mi
11:54 AM76 °FSunny.14 mph62%29.80 "Hg10 mi
10:54 AM69 °FSunny.12 mph79%29.83 "Hg10 mi
9:54 AM64 °FSunny.15 mph87%29.85 "Hg10 mi
8:54 AM63 °FLight rain. Fog.21 mph93%29.85 "Hg6 mi
8:03 AM63 °FThunderstorms. Fog.14 mph90%30.05 "Hg6 mi
7:54 AM63 °FStrong thunderstorms. Fog.13 mph90%30.03 "Hg3 mi
6:54 AM63 °FClear.15 mph87%29.91 "Hg10 mi
5:54 AM63 °FClear.14 mph87%29.93 "Hg10 mi
4:54 AM63 °FClear.12 mph90%29.96 "Hg10 mi
3:54 AM64 °FClear.12 mph87%29.98 "Hg10 mi
2:54 AM64 °FClear.9 mph90%30.02 "Hg10 mi
1:54 AM64 °FClear.10 mph90%30.04 "Hg10 mi
12:54 AM65 °FClear.14 mph91%30.06 "Hg10 mi
11:54 PM
Jul 23
65 °FClear.9 mph91%30.07 "Hg10 mi
10:54 PM67 °FClear.10 mph87%30.08 "Hg10 mi
9:54 PM69 °FSunny.10 mph81%30.09 "Hg10 mi
8:54 PM72 °FSunny.12 mph76%30.09 "Hg10 mi
7:54 PM74 °FPassing clouds.14 mph74%30.10 "Hg10 mi
6:54 PM76 °FPassing clouds.16 mph72%30.11 "Hg10 mi
5:54 PM76 °FScattered clouds.16 mph72%30.14 "Hg10 mi
4:54 PM77 °FPassing clouds.17 mph66%30.15 "Hg10 mi
3:54 PM76 °FScattered clouds.15 mph72%30.18 "Hg10 mi
Weather by CustomWeather, © 2014

See weather overviewHow to use our weather pages